[Iaude] MPEC M36: 2022 MQ [a=0.95,e=0.13,i=23.6,H=22.8]

mpec at marsden.cfa.harvard.edu mpec at marsden.cfa.harvard.edu
Wed Jun 22 08:35:04 EDT 2022


M.P.E.C. 2022-M36                                 Issued 2022 June 22, 12:33 UT

     The Minor Planet Electronic Circulars contain information on unusual
         minor planets and routine data on comets.  They are published
    on behalf of Division F of the International Astronomical Union by the
          Minor Planet Center, Smithsonian Astrophysical Observatory,
                          Cambridge, MA 02138, U.S.A.

             Prepared using the Tamkin Foundation Computer Network

                              MPC at CFA.HARVARD.EDU
            URL https://www.minorplanetcenter.net/    ISSN 1523-6714

                                    2022 MQ                                     


Observations:
     K22M00Q* C2022 06 21.43274719 46 31.303+23 54 55.40         17.73oVEM036T08
     K22M00Q  C2022 06 21.45125119 46 27.442+23 50 33.29         17.50oVEM036T08
     K22M00Q  C2022 06 21.45667719 46 26.275+23 49 16.46         17.78oVEM036T08
     K22M00Q EC2022 06 21.95323019 45 20.402+21 38 42.36         17.6 GVEM036J95
     K22M00Q KC2022 06 21.95576419 45 19.910+21 38 00.64         17.8 GVEM036J95
     K22M00Q KC2022 06 21.95688919 45 19.706+21 37 41.99         17.8 GVEM036J95
     K22M00Q KC2022 06 21.95800819 45 19.481+21 37 23.95         17.4 GVEM036J95
     K22M00Q KC2022 06 21.95911619 45 19.296+21 37 05.12         17.8 GVEM036J95
     K22M00Q KC2022 06 21.97139 19 45 14.02 +21 33 56.9          17.2 GXEM036G02
     K22M00Q KC2022 06 21.97529 19 45 13.21 +21 32 52.1          17.3 GXEM036G02
     K22M00Q KC2022 06 21.97917 19 45 12.41 +21 31 45.8          17.1 GXEM036G02
     K22M00Q KC2022 06 21.98955 19 45 11.89 +21 29 07.5          17.2 GVEM036M26
     K22M00Q KC2022 06 21.99284 19 45 11.19 +21 28 12.0          17.1 GVEM036M26
     K22M00Q KC2022 06 21.99370419 45 11.01 +21 27 58.2          17.3 RqEM036104
     K22M00Q KC2022 06 21.99604 19 45 10.48 +21 27 19.2          17.8 GVEM036M26
     K22M00Q KC2022 06 21.99803919 45 10.12 +21 26 45.0          17.0 RqEM036104
     K22M00Q KC2022 06 22.00136219 45 11.37 +21 25 43.2          17.7 GXEM036I93
     K22M00Q KC2022 06 22.00459419 45 10.68 +21 24 48.7          17.8 GXEM036I93
     K22M00Q KC2022 06 22.00612919 45 08.32 +21 24 28.8          17.3 RqEM036104
     K22M00Q KC2022 06 22.00782319 45 09.99 +21 23 54.4          17.4 GXEM036I93
     K22M00Q KC2022 06 22.01092419 45 08.839+21 22 39.18         17.8 GVEM036Z80
     K22M00Q KC2022 06 22.01550119 45 07.862+21 21 21.02         18.2 GVEM036Z80
     K22M00Q KC2022 06 22.02003219 45 06.936+21 20 04.06         17.7 GVEM036Z80
     K22M00Q KC2022 06 22.09498619 45 04.90 +20 58 41.5          18.2 VZEM036W33
     K22M00Q KC2022 06 22.10029319 45 03.95 +20 57 11.3          18.3 VZEM036W33
     K22M00Q KC2022 06 22.10564119 45 03.03 +20 55 39.6          18.3 VZEM036W33
     K22M00Q KC2022 06 22.14901519 44 54.742+20 43 08.87         17.5 GXEM036W34
     K22M00Q KC2022 06 22.15502719 44 53.508+20 41 23.96         18.2 GXEM036W34
     K22M00Q KC2022 06 22.16112519 44 52.243+20 39 37.51         17.5 GXEM036W34
     K22M00Q KC2022 06 22.19092 19 44 47.58 +20 30 03.7          16.7 GXEM036V41
     K22M00Q KC2022 06 22.19919 19 44 46.03 +20 27 37.0          16.8 GXEM036V41
     K22M00Q KC2022 06 22.20746 19 44 44.38 +20 25 10.0          16.8 GXEM036V41
     K22M00Q KC2022 06 22.22296319 44 39.45 +20 20 59.3          18.0 VuEM036H21
     K22M00Q KC2022 06 22.22482619 44 39.03 +20 20 25.8          17.9 VuEM036H21
     K22M00Q KC2022 06 22.23227819 44 37.34 +20 18 11.4          17.7 VuEM036H21
     K22M00Q KC2022 06 22.23414219 44 36.94 +20 17 37.6          18.0 VuEM036H21
     K22M00Q KC2022 06 22.23600619 44 36.50 +20 17 04.0          17.8 VuEM036H21
     K22M00Q KC2022 06 22.23786919 44 36.06 +20 16 30.4          17.7 VuEM036H21
     K22M00Q KC2022 06 22.23991419 44 35.63 +20 15 53.2          18.0 VuEM036H21

Observer details:
104 San Marcello Pistoiese.  Observers P. Bacci, M. Maestripieri.  Measurers
    P. Bacci, L. Tesi, G. Fagioli.  0.60-m F4 Reflector + CCD.
G02 KYSUCE Observatory, Kysucke Nove Mesto.  Observer M. Urbanik.  0.40-m
    f/5.5 Corrected Dall-Kirkham + CCD.
H21 Astronomical Research Observatory, Westfield.  Observer R. Holmes.
    Measurers T. Linder, R. Holmes, L. Horn.  0.76-m f/3.0 astrograph + CCD.
I93 St Pardon de Conques.  Observer F. Losse.  0.40-m f/3.7 reflector + CCD.
J95 Great Shefford.  Observer P. Birtwhistle.  0.41-m f/6.3 Schmidt-Cassegrain
    + CCD.
M26 Zen Observatory, Scandicci.  Observers M. Lombardo, K. Lombardo.  Measurer
    M. Lombardo.  0.30-m f/8 Ritchey-Chretien + CCD.
T08 ATLAS-MLO, Mauna Loa.  Observers L. Denneau, R. Siverd, J. Tonry, H.
    Weiland.  Measurers L. Denneau, N. Erasmus, A. Fitzsimmons, A. Lawrence,
    J. Robinson, R. Siverd, J. Tonry, H. Weiland.  0.5-m Reflector + CCD.
V41 Rapid City.  Observer R. Michael.  Celestron RASA, 0.28m + CCD.
W33 Transit Dreams Observatory, Campobello.  Observer D. Wilde.  .36m SCT f2 +
    CCD.
W34 Squirrel Valley Observatory, Columbus.  Observer R. L. Flynn.  0.36-m
    f/1.9 0.36 Aplanatic Schmidt Cassegrain + CCD.
Z80 Northolt Branch Observatory.  Observer G. Wells.  Measurers G. Wells, D.
    Bamberger.  0.25-m f/8.0 Ritchey-Chretien + CCD.

Orbital elements:
2022 MQ                                                  Earth MOID = 0.0190 AU
Epoch 2022 Aug. 9.0 TT = JDT 2459800.5                  Veres                   
M 275.10304              (2000.0)            P               Q                  
n   1.07109901     Peri.  321.81304     +0.50224100     -0.76684434             
a   0.9460548      Node    94.54980     +0.85867352     +0.38768048             
e   0.1301659      Incl.   23.63400     +0.10214579     +0.51152087             
P   0.92           H   22.85          G   0.15           U   7                  
Residuals in seconds of arc
220621 T08  0.2+  0.2+    220621 104  0.5-  0.1+    220622 W34  0.2+  0.0
220621 T08  0.1+  0.3-    220621 M26  0.1-  0.6-    220622 W34  0.0   0.1+
220621 T08  0.2-  0.0     220621 104  0.2+  0.1-    220622 W34  0.2-  0.5+
220621 J95  0.0   0.1-    220622 I93  0.0   0.0     220622 V41  0.6-  0.4-
220621 J95  0.2-  0.0     220622 I93  0.1-  0.1-    220622 V41  0.0   0.4-
220621 J95  0.0   0.0     220622 104  0.4-  0.4+    220622 V41  0.3-  0.2-
220621 J95  0.2-  0.4+    220622 I93  0.1-  0.0     220622 H21  0.2+  0.1+
220621 J95  0.2+  0.0     220622 Z80  0.4+  0.6+    220622 H21  0.1+  0.1+
220621 G02  0.1-  0.1-    220622 Z80  0.1-  0.0     220622 H21  0.2-  0.1+
220621 G02  0.0   0.4+    220622 Z80  0.1+  0.1-    220622 H21  0.1+  0.0
220621 G02  0.2+  0.8-    220622 W33  0.4+  0.6-    220622 H21  0.2-  0.1+
220621 M26  0.0   1.5-    220622 W33  0.1+  0.0     220622 H21  0.4-  0.2+
220621 M26  0.2+  1.7-    220622 W33  0.5+  0.0     220622 H21  0.1+  0.1+

Ephemeris:
2022 MQ                  a,e,i = 0.95, 0.13, 24                  q = 0.8229
Date    TT    R. A. (2000) Decl.     Delta      r    Elong.  Phase     V
2022 05 23    19 51 00.7 +43 07 24   0.2363  1.0669    96.9    70.4    22.3
...
2022 06 07    19 55 08.2 +41 09 47   0.1399  1.0579   104.2    68.4    21.1
...
2022 06 15    19 53 33.9 +36 42 57   0.08611 1.0501   111.4    64.3    19.9
...
2022 06 21    19 47 17.7 +25 31 50   0.04638 1.0430   124.2    53.7    18.2
2022 06 22    19 45 06.8 +21 27 51   0.04012 1.0417   128.5    49.8    17.8
2022 06 23    19 42 15.9 +15 54 43   0.03415 1.0404   134.1    44.6    17.3
...
2022 06 29    17 58 03.7 -73 34 34   0.02367 1.0318   129.5    49.5    16.6
...
2022 07 07    08 36 11.5 -65 17 40   0.07186 1.0189    89.7    86.2    20.2
...
2022 07 22    08 16 37.1 -56 08 16   0.1700  0.9905    76.6    93.8    22.3

M. P. C. Staff               (C) Copyright 2022 MPC           M.P.E.C. 2022-M36




More information about the Iaude mailing list